Location: Derby
(52.9213°N, 1.4761°W)
Time: 16:04:30
(UTC+01:00)

Vanguard 1 - Pass Details

Date: 25 May 2025
Orbit: 649 x 3822 km, 34.3° (Epoch: 14 June)

Event Time Altitude Azimuth Distance (km) Brightness Sun altitude
Rises 17:31:02 0° 234° (SW) 7,894 15.5 30.4°
Reaches altitude 10° 17:37:27 10° 227° (SW) 6,666 15.2 29.5°
Maximum altitude 17:54:20 34° 173° (S) 3,888 13.3 26.9°
Drops below altitude 10° 18:05:24 10° 114° (ESE) 4,385 12.9 25.3°
Sets 18:08:34 0° 105° (ESE) 5,001 13.1 24.8°
